This demonstration page uses our WeatherBlox Daily Observations layout. Learn more.

Left ArrowRight Arrow

Hourly Observations for June 9, 2016

Temp ( °F °C ) Dew Point ( °F °C ) Humidity (%) Winds ( mph kmh ) Pressure ( in mb ) Visibility ( mi km ) Precip ( " mm )
12:51 am 00:51 Clear 84 28.9 38 3.3 19 19 WNW 7 11 29.68 1005 10 16 0.00 0.00
1:51 am 01:51 Clear 85 29.4 38 3.3 19 19 WNW 13 20 29.69 1006 10 16 0.00 0.00
2:51 am 02:51 Clear 82 27.8 39 3.9 22 22 WNW 8 13 29.70 1006 10 16 0.00 0.00
3:51 am 03:51 Clear 83 28.3 42 5.6 24 24 WNW 17 28 29.71 1006 10 16 0.00 0.00
4:51 am 04:51 Clear 82 27.8 43 6.1 25 25 NW 14 22 29.74 1007 10 16 0.00 0.00
5:51 am 05:51 Sunny 80 26.7 43 6.1 27 27 NW 12 19 29.77 1008 10 16 0.00 0.00
6:51 am 06:51 Sunny 84 28.9 44 6.7 25 25 NW 14 22 29.78 1009 10 16 0.00 0.00
7:51 am 07:51 Sunny 87 30.6 46 7.8 24 24 NW 17 28 29.79 1009 10 16 0.00 0.00
8:51 am 08:51 Sunny 89 31.7 49 9.4 25 25 NW 18 30 29.80 1009 10 16 0.00 0.00
9:51 am 09:51 Sunny 90 32.2 47 8.3 23 23 W 16 26 29.79 1009 10 16 0.00 0.00
10:51 am 10:51 Sunny 94 34.4 46 7.8 19 19 WNW 17 28 29.77 1008 10 16 0.00 0.00
11:51 am 11:51 Sunny 97 36.1 44 6.7 16 16 NW 18 30 29.74 1007 10 16 0.00 0.00
12:51 pm 12:51 Sunny 98 36.7 45 7.2 16 16 WNW 17 28 29.71 1006 10 16 0.00 0.00
1:51 pm 13:51 Sunny 99 37.2 46 7.8 16 16 WNW 17 28 29.67 1005 10 16 0.00 0.00
2:51 pm 14:51 Sunny 101 38.3 47 8.3 16 16 NW 24 39 29.65 1004 10 16 0.00 0.00
3:51 pm 15:51 Sunny 98 36.7 47 8.3 17 17 WNW 25 41 29.63 1004 10 16 0.00 0.00
4:51 pm 16:51 Sunny 97 36.1 46 7.8 17 17 W 23 37 29.63 1003 10 16 0.00 0.00
5:51 pm 17:51 Sunny 96 35.6 45 7.2 17 17 WNW 22 35 29.63 1004 10 16 0.00 0.00
6:51 pm 18:51 Sunny 95 35 46 7.8 19 19 WNW 22 35 29.65 1004 10 16 0.00 0.00
7:51 pm 19:51 Clear 91 32.8 47 8.3 22 22 WNW 20 31 29.64 1004 10 16 0.00 0.00
8:51 pm 20:51 Clear 89 31.7 48 8.9 24 24 WNW 12 19 29.70 1006 10 16 0.00 0.00
9:51 pm 21:51 Clear with Thunderstorms 88 31.1 49 9.4 26 26 WNW 9 15 29.75 1007 10 16 0.00 0.00
10:04 pm 22:04 Clear 87 30.6 49 9.4 27 27 WNW 8 13 29.71 1006 10 16 0.00 0.00
10:51 pm 22:51 Clear 87 30.6 49 9.4 27 27 WNW 10 17 29.74 1007 10 16 0.00 0.00
11:51 pm 23:51 Cloudy with Light Rain 77 25 60 15.6 56 56 E 13 20 29.81 1010 9 14 0.00 0.03

Powered by AerisWeather